{"data":{"norad_id":67470,"epoch":"2026-05-24T23:47:21.968736Z","epoch_age_seconds":86487,"freshness":"FRESH","line1":"1 67470U 26008AB  26144.99122649  .00014210  00000+0  52471-3 0  9998","line2":"2 67470  42.9983 134.1145 0001935 280.7208  79.3426 15.27590765 21242","mean_motion":15.27590765,"eccentricity":0.0001935,"inclination_deg":42.9983,"raan_deg":134.1145,"arg_perigee_deg":280.7208,"mean_anomaly_deg":79.3426,"bstar":0.00052471,"rev_number":2124,"period_min":94.266084411685,"perigee_km":481.68922867398,"apogee_km":484.34449521855,"semimajor_km":6861.1538619463,"source":"CELESTRAK","updated_at":"2026-05-25T13:38:21.564995Z"}}